QPF
0.00 0.00 0.00 0.00 0.00 0.00 0.00 0.00 0.00 0.00 0.00 0.00 0.00 0.00 0.00 0.00 0.00 0.00 0.00 0.00 0.00 0.00 0.00 0.00 0.00 0.00 0.00 0.00 0.00 0.00 0.00 0.00 0.00 0.00 0.00 0.00 0.00 0.00 0.00 0.00 0.00 0.00 0.00 0.00 0.00 0.00 0.00
0.00 0.00 0.00 0.00 0.00 0.00 0.00 0.00 0.00 0.00 0.00 0.00 0.00 0.00 0.00 0.00 0.00 0.00 0.00 0.00 0.00 0.00 0.00 0.00 0.00 0.00 0.00 0.00 0.00 0.00 0.00 0.00 0.00 0.00 0.00 0.00 0.00 0.00 0.00 0.00 0.00 0.00 0.00 0.00 0.00 0.00 0.00
0.00 0.00 0.00 0.00 0.00 0.00 0.00 0.00 0.00 0.00 0.00 0.00 0.00 0.00 0.00 0.00 0.00 0.00 0.00 0.00 0.00 0.00 0.00 0.00 0.00 0.00 0.00 0.00 0.00 0.00 0.00 0.00 0.00 0.00 0.00 0.00 0.00 0.00 0.00 0.00 0.00 0.00 0.00 0.00 0.00 0.00 0.00
0.00 0.00 0.00 0.00 0.00 0.00 0.00 0.00 0.00 0.00 0.00 0.00 0.00 0.00 0.00 0.00 0.00 0.00 0.00 0.00 0.00 0.00 0.00 0.00 0.00 0.00 0.00 0.00 0.00 0.00 0.00 0.00 0.00 0.00 0.00 0.00 0.00 0.00 0.00 0.00 0.00 0.00 0.00 0.00 0.00 0.00 0.00
0.00 0.00 0.00 0.00 0.00 0.00 0.00 0.00 0.00 0.00 0.00 0.00 0.00 0.00 0.00 0.00 0.00 0.00 0.00 0.00 0.00 0.00 0.00 0.00 0.00 0.00 0.00 0.00 0.00 0.00 0.00 0.00 0.00 0.00 0.00 0.00 0.00 0.00 0.00 0.00 0.00 0.00 0.00 0.00 0.00 0.00 0.00
0.00 0.00 0.00 0.00 0.00 0.00 0.00 0.00 0.00 0.00 0.00 0.00 0.00 0.00 0.00 0.00 0.00 0.00 0.00 0.00 0.00 0.00 0.00 0.00 0.00 0.00 0.00 0.00 0.00 0.00 0.00 0.00 0.00 0.00 0.00 0.00 0.00 0.00 0.00 0.00 0.00 0.00 0.00 0.00 0.00 0.00 0.00
0.00 0.00 0.00 0.00 0.00 0.00 0.00 0.00 0.00 0.00 0.00 0.00 0.00 0.00 0.00 0.00 0.00 0.00 0.00 0.00 0.00 0.00 0.00 0.00 0.00 0.00 0.00 0.00 0.00 0.00 0.00 0.00 0.00 0.00 0.00 0.00 0.00 0.00 0.00 0.00 0.00 0.00 0.00 0.00 0.00 0.00 0.00
0.00 0.00 0.00 0.00 0.00 0.00 0.00 0.00 0.00 0.00 0.00 0.00 0.00 0.00 0.00 0.00 0.00 0.00 0.00 0.00 0.00 0.00 0.00 0.00 0.00 0.00 0.00 0.00 0.00 0.00 0.00 0.00 0.00 0.00 0.00 0.00 0.00 0.00 0.00 0.00 0.00 0.00 0.00 0.00 0.00 0.00 0.00
0.00 0.00 0.00 0.00 0.00 0.00 0.00 0.00 0.00 0.00 0.00 0.00 0.00 0.00 0.00 0.00 0.00 0.00 0.00 0.00 0.00 0.00 0.00 0.00 0.00 0.00 0.00 0.00 0.00 0.00 0.00 0.00 0.00 0.00 0.00 0.00 0.00 0.00 0.00 0.00 0.00 0.00 0.00 0.00 0.00 0.00 0.00
0.00 0.00 0.00 0.00 0.00 0.00 0.00 0.00 0.00 0.00 0.00 0.00 0.00 0.00 0.00 0.00 0.00 0.00 0.00 0.00 0.00 0.00 0.00 0.00 0.00 0.00 0.00 0.00 0.00 0.00 0.00 0.00 0.00 0.00 0.00 0.00 0.00 0.00 0.00 0.00 0.00 0.00 0.00 0.00 0.00 0.00 0.00
0.00 0.00 0.00 0.00 0.00 0.00 0.00 0.00 0.00 0.00 0.00 0.00 0.00 0.00 0.00 0.00 0.00 0.00 0.00 0.00 0.00 0.00 0.00 0.00 0.00 0.00 0.00 0.00 0.00 0.00 0.00 0.00 0.00 0.00 0.00 0.00 0.00 0.00 0.00 0.00 0.00 0.00 0.00 0.00 0.00 0.00 0.00
0.00 0.00 0.00 0.00 0.00 0.00 0.00 0.00 0.00 0.00 0.00 0.00 0.00 0.00 0.00 0.00 0.00 0.00 0.00 0.00 0.00 0.00 0.00 0.00 0.00 0.00 0.00 0.00 0.00 0.00 0.00 0.00 0.00 0.00 0.00 0.00 0.00 0.00 0.00 0.00 0.00 0.00 0.00 0.00 0.00 0.00 0.00
0.00 0.00 0.00 0.00 0.00 0.00 0.00 0.00 0.00 0.00 0.00 0.00 0.00 0.00 0.00 0.00 0.00 0.00 0.00 0.00 0.00 0.00 0.00 0.00 0.00 0.00 0.00 0.00 0.00 0.00 0.00 0.00 0.00 0.00 0.00 0.00 0.00 0.00 0.00 0.00 0.00 0.00 0.00 0.00 0.00 0.00 0.00
0.00 0.00 0.00 0.00 0.00 0.00 0.00 0.00 0.00 0.00 0.00 0.00 0.00 0.00 0.00 0.00 0.00 0.00 0.00 0.00 0.00 0.00 0.00 0.00 0.00 0.00 0.00 0.00 0.00 0.00 0.00 0.00 0.00 0.00 0.00 0.00 0.00 0.00 0.00 0.00 0.00 0.00 0.00 0.00 0.00 0.00 0.00
0.00 0.00 0.00 0.00 0.00 0.00 0.00 0.00 0.00 0.00 0.00 0.00 0.00 0.00 0.00 0.00 0.00 0.00 0.00 0.00 0.00 0.00 0.00 0.00 0.00 0.00 0.00 0.00 0.00 0.00 0.00 0.00 0.00 0.00 0.00 0.00 0.00 0.00 0.00 0.00 0.00 0.00 0.00 0.00 0.00 0.00 0.00
0.00 0.00 0.00 0.00 0.00 0.00 0.00 0.00 0.00 0.00 0.00 0.00 0.00 0.00 0.00 0.00 0.00 0.00 0.00 0.00 0.00 0.00 0.00 0.00 0.00 0.00 0.00 0.00 0.00 0.00 0.00 0.00 0.00 0.00 0.00 0.00 0.00 0.00 0.00 0.00 0.00 0.00 0.00 0.00 0.00 0.00 0.00
0.00 0.00 0.00 0.00 0.00 0.00 0.00 0.00 0.00 0.00 0.00 0.00 0.00 0.00 0.00 0.00 0.00 0.00 0.00 0.00 0.00 0.00 0.00 0.00 0.00 0.00 0.00 0.00 0.00 0.00 0.00 0.00 0.00 0.00 0.00 0.00 0.00 0.00 0.00 0.00 0.00 0.00 0.00 0.00 0.00 0.00 0.00
0.00 0.00 0.00 0.00 0.00 0.00 0.00 0.00 0.00 0.00 0.00 0.00 0.00 0.00 0.00 0.00 0.00 0.00 0.00 0.00 0.00 0.00 0.00 0.00 0.00 0.00 0.00 0.00 0.00 0.00 0.00 0.00 0.00 0.00 0.00 0.00 0.00 0.00 0.00 0.00 0.00 0.00 0.00 0.00 0.00 0.00 0.00
0.00 0.00 0.00 0.00 0.00 0.00 0.00 0.00 0.00 0.00 0.00 0.00 0.00 0.00 0.00 0.00 0.00 0.00 0.00 0.00 0.00 0.00 0.00 0.00 0.00 0.00 0.01 0.00 0.00 0.00 0.00 0.00 0.00 0.00 0.00 0.00 0.00 0.00 0.00 0.00 0.00 0.00 0.00 0.00 0.00 0.00 0.00
0.00 0.00 0.00 0.00 0.00 0.00 0.00 0.00 0.00 0.00 0.00 0.00 0.00 0.00 0.00 0.00 0.00 0.00 0.00 0.00 0.00 0.00 0.00 0.00 0.00 0.00 0.01 0.02 0.00 0.00 0.00 0.00 0.00 0.00 0.00 0.00 0.00 0.00 0.00 0.00 0.00 0.00 0.00 0.00 0.00 0.00 0.00
0.00 0.00 0.00 0.00 0.00 0.00 0.00 0.00 0.00 0.00 0.00 0.00 0.00 0.00 0.00 0.00 0.00 0.00 0.00 0.00 0.00 0.00 0.00 0.00 0.00 0.00 0.00 0.01 0.00 0.00 0.00 0.00 0.00 0.00 0.00 0.00 0.00 0.00 0.00 0.00 0.00 0.00 0.00 0.00 0.00 0.00 0.00
0.00 0.00 0.00 0.00 0.00 0.00 0.00 0.00 0.00 0.00 0.00 0.00 0.00 0.00 0.00 0.00 0.00 0.00 0.00 0.00 0.00 0.00 0.00 0.00 0.00 0.00 0.00 0.00 0.00 0.00 0.00 0.00 0.00 0.00 0.00 0.00 0.00 0.00 0.00 0.00 0.00 0.00 0.00 0.00 0.00 0.00 0.00
0.00 0.00 0.00 0.00 0.00 0.00 0.00 0.00 0.00 0.00 0.00 0.00 0.00 0.00 0.00 0.00 0.00 0.00 0.00 0.00 0.00 0.00 0.00 0.00 0.00 0.01 0.00 0.00 0.00 0.00 0.00 0.01 0.00 0.00 0.00 0.00 0.00 0.00 0.00 0.00 0.00 0.00 0.00 0.00 0.00 0.00 0.00
0.00 0.00 0.00 0.00 0.00 0.00 0.00 0.00 0.00 0.00 0.00 0.00 0.00 0.00 0.00 0.00 0.00 0.00 0.00 0.00 0.00 0.00 0.00 0.01 0.01 0.02 0.01 0.00 0.00 0.00 0.01 0.00 0.00 0.00 0.00 0.00 0.00 0.00 0.00 0.00 0.00 0.00 0.00 0.00 0.00 0.00 0.00
0.00 0.00 0.00 0.00 0.00 0.00 0.00 0.00 0.00 0.00 0.00 0.00 0.00 0.00 0.00 0.00 0.00 0.00 0.00 0.00 0.00 0.00 0.00 0.00 0.00 0.00 0.02 0.03 0.00 0.00 0.01 0.00 0.00 0.00 0.00 0.00 0.00 0.00 0.00 0.00 0.00 0.00 0.00 0.00 0.00 0.00 0.00
0.00 0.00 0.00 0.00 0.00 0.00 0.00 0.00 0.00 0.00 0.00 0.00 0.00 0.00 0.00 0.00 0.00 0.00 0.00 0.00 0.00 0.00 0.00 0.00 0.00 0.00 0.00 0.00 0.01 0.01 0.00 0.00 0.00 0.00 0.00 0.00 0.00 0.00 0.00 0.00 0.00 0.00 0.00 0.00 0.00 0.00 0.00
0.00 0.00 0.00 0.00 0.00 0.00 0.00 0.00 0.00 0.00 0.00 0.00 0.00 0.00 0.00 0.00 0.00 0.00 0.00 0.00 0.00 0.00 0.00 0.00 0.00 0.00 0.00 0.00 0.01 0.03 0.00 0.00 0.00 0.00 0.01 0.00 0.00 0.00 0.00 0.00 0.00 0.00 0.00 0.00 0.00 0.00 0.00
0.00 0.00 0.00 0.00 0.00 0.00 0.00 0.00 0.00 0.00 0.00 0.00 0.00 0.00 0.00 0.00 0.00 0.00 0.00 0.00 0.00 0.00 0.00 0.00 0.00 0.01 0.00 0.00 0.00 0.01 0.01 0.00 0.00 0.00 0.01 0.01 0.00 0.00 0.00 0.00 0.00 0.00 0.00 0.00 0.00 0.00 0.00
0.00 0.00 0.00 0.00 0.00 0.00 0.00 0.00 0.00 0.00 0.00 0.00 0.00 0.00 0.00 0.00 0.00 0.00 0.00 0.00 0.00 0.00 0.00 0.00 0.00 0.00 0.00 0.01 0.01 0.00 0.00 0.01 0.00 0.00 0.00 0.00 0.00 0.01 0.00 0.00 0.00 0.00 0.00 0.00 0.00 0.00 0.00
MSLP
1019.50 1019.17 1018.83 1018.53 1018.26 1017.97 1017.60 1017.21 1016.82 1016.47 1016.15 1015.83 1015.51 1015.15 1014.80 1014.49 1014.18 1013.75 1013.22 1012.78 1012.43 1012.04 1011.64 1011.25 1010.81 1010.38 1009.85 1009.10 1006.37 1004.64 1004.56 1004.39 1004.55 1004.67 1004.70 1004.55 1004.64 1004.99 1005.04 1004.96 1004.88 1005.11 1004.66 1004.45 1003.63 1003.65 1003.82
1019.56 1019.31 1018.94 1018.58 1018.26 1017.94 1017.56 1017.17 1016.73 1016.34 1016.02 1015.72 1015.41 1015.09 1014.77 1014.37 1013.99 1013.58 1013.15 1012.69 1012.22 1011.82 1011.49 1011.08 1010.69 1010.43 1010.01 1008.17 1004.69 1004.55 1005.01 1004.94 1004.87 1004.85 1004.69 1004.64 1004.58 1004.72 1004.86 1004.87 1004.82 1004.13 1003.80 1003.88 1003.68 1003.68 1003.65
1019.58 1019.29 1019.01 1018.64 1018.28 1017.87 1017.48 1017.06 1016.61 1016.23 1015.85 1015.46 1015.16 1014.86 1014.56 1014.21 1013.85 1013.43 1012.96 1012.55 1012.08 1011.60 1011.16 1010.93 1010.78 1010.57 1009.61 1006.00 1004.49 1004.58 1004.59 1004.83 1004.86 1004.74 1004.71 1004.50 1004.42 1004.55 1004.66 1004.62 1004.42 1004.09 1004.07 1003.79 1003.94 1004.00 1004.14
1019.50 1019.29 1019.02 1018.63 1018.28 1017.87 1017.40 1017.01 1016.59 1016.19 1015.79 1015.38 1015.03 1014.63 1014.27 1013.93 1013.50 1013.07 1012.57 1011.96 1011.40 1010.88 1010.59 1010.57 1010.53 1010.34 1008.16 1004.92 1004.61 1004.56 1004.44 1004.40 1004.70 1004.72 1004.60 1004.32 1004.35 1004.61 1004.85 1004.56 1004.31 1004.46 1004.46 1004.49 1004.22 1004.16 1004.35
1019.45 1019.27 1018.97 1018.59 1018.17 1017.82 1017.42 1016.97 1016.55 1016.12 1015.73 1015.32 1014.90 1014.48 1014.12 1013.71 1013.31 1012.84 1012.16 1011.50 1010.73 1010.28 1010.18 1010.30 1010.37 1009.85 1006.95 1004.69 1004.69 1003.85 1003.99 1004.19 1004.29 1004.44 1004.30 1004.29 1004.51 1005.14 1005.24 1005.36 1005.53 1005.71 1005.44 1005.23 1004.78 1004.59 1004.99
1019.36 1019.20 1018.86 1018.46 1018.06 1017.73 1017.31 1016.92 1016.56 1016.17 1015.82 1015.42 1014.99 1014.53 1014.03 1013.49 1013.10 1012.65 1011.81 1010.72 1010.39 1010.30 1010.32 1010.35 1010.09 1009.81 1006.54 1005.13 1004.37 1003.86 1003.84 1003.89 1004.15 1004.42 1004.50 1004.66 1005.35 1005.78 1006.12 1006.33 1006.60 1006.41 1005.96 1005.53 1005.33 1004.87 1005.24
1019.35 1019.14 1018.71 1018.32 1017.98 1017.65 1017.27 1016.86 1016.52 1016.14 1015.73 1015.33 1014.97 1014.57 1014.04 1013.50 1013.01 1012.50 1011.68 1010.94 1010.79 1010.65 1010.16 1009.06 1008.60 1007.92 1006.38 1005.21 1004.26 1003.89 1003.73 1003.90 1004.14 1004.75 1005.19 1005.42 1006.12 1006.15 1006.07 1006.17 1006.11 1006.02 1006.01 1005.71 1004.78 1004.68 1004.83
1019.26 1019.03 1018.57 1018.17 1017.85 1017.55 1017.19 1016.82 1016.45 1016.05 1015.65 1015.24 1014.85 1014.36 1013.84 1013.49 1012.89 1012.31 1012.08 1011.70 1011.47 1011.66 1010.24 1008.11 1007.58 1007.09 1006.10 1005.73 1005.49 1004.03 1003.66 1004.11 1004.49 1005.28 1005.64 1006.11 1005.99 1005.78 1005.71 1005.86 1005.81 1005.91 1005.85 1005.49 1004.50 1003.91 1004.43
1019.21 1018.91 1018.46 1018.12 1017.72 1017.41 1017.10 1016.73 1016.35 1015.95 1015.59 1015.18 1014.71 1014.18 1013.64 1013.16 1012.56 1012.51 1012.58 1011.61 1011.22 1011.18 1010.80 1007.55 1006.71 1006.13 1005.38 1005.43 1004.97 1004.02 1003.77 1004.05 1004.79 1005.57 1005.93 1006.20 1005.82 1005.51 1005.51 1005.56 1005.57 1005.64 1005.78 1005.49 1005.50 1004.77 1004.91
1019.15 1018.81 1018.45 1018.08 1017.71 1017.33 1016.97 1016.59 1016.16 1015.77 1015.40 1014.99 1014.58 1014.11 1013.70 1013.10 1012.84 1013.23 1012.16 1011.21 1011.07 1011.12 1010.29 1007.35 1005.87 1004.66 1004.71 1004.60 1004.02 1003.14 1003.32 1003.79 1004.71 1005.16 1006.15 1006.05 1005.35 1005.15 1005.07 1005.08 1005.34 1005.53 1005.20 1005.39 1005.62 1005.88 1006.07
1019.13 1018.81 1018.46 1018.07 1017.68 1017.22 1016.81 1016.43 1015.97 1015.54 1015.15 1014.76 1014.33 1013.99 1013.85 1013.72 1013.74 1013.19 1011.58 1011.14 1010.73 1010.82 1009.30 1006.05 1004.78 1003.81 1003.99 1004.17 1003.22 1002.95 1002.79 1003.25 1004.28 1005.02 1005.69 1005.39 1005.09 1004.92 1004.87 1004.65 1005.01 1005.42 1005.13 1005.62 1005.85 1006.51 1007.00
1019.09 1018.75 1018.37 1017.98 1017.56 1017.10 1016.63 1016.16 1015.64 1015.19 1014.79 1014.39 1014.09 1013.85 1013.67 1013.67 1013.63 1011.79 1011.28 1011.04 1010.73 1010.57 1008.14 1005.60 1004.38 1004.06 1004.29 1003.80 1003.18 1002.88 1002.96 1003.07 1003.86 1004.75 1005.28 1005.18 1004.62 1004.43 1003.96 1004.26 1004.50 1005.15 1005.75 1006.43 1007.17 1007.84 1008.29
1019.04 1018.68 1018.22 1017.76 1017.34 1016.94 1016.44 1015.95 1015.44 1014.93 1014.44 1013.94 1013.45 1013.25 1013.44 1013.09 1012.22 1011.45 1011.36 1011.04 1011.05 1009.76 1007.37 1006.09 1005.07 1004.40 1004.34 1003.98 1003.47 1002.93 1003.38 1003.79 1004.27 1005.24 1005.56 1005.37 1004.74 1004.03 1003.79 1004.29 1004.72 1005.22 1006.59 1007.73 1008.71 1009.16 1009.36
1018.95 1018.51 1018.09 1017.66 1017.21 1016.79 1016.27 1015.71 1015.17 1014.63 1014.16 1013.48 1012.82 1012.43 1012.21 1012.12 1011.72 1011.74 1011.59 1011.28 1011.02 1009.06 1007.75 1006.37 1005.45 1004.76 1004.49 1003.96 1003.70 1003.59 1003.86 1004.56 1004.89 1005.23 1006.36 1006.02 1005.13 1003.95 1003.44 1003.75 1004.19 1005.29 1006.57 1008.00 1008.99 1009.92 1009.68
1018.92 1018.49 1018.02 1017.57 1017.10 1016.69 1016.15 1015.58 1015.02 1014.47 1013.85 1013.02 1012.29 1012.30 1012.18 1011.27 1011.57 1011.89 1011.58 1011.63 1010.44 1009.19 1007.84 1007.03 1005.91 1005.33 1004.80 1004.12 1003.85 1003.94 1004.33 1004.76 1004.81 1005.11 1005.74 1005.98 1005.05 1003.59 1003.14 1003.02 1003.68 1005.46 1006.33 1006.65 1008.71 1010.20 1009.99
1018.91 1018.48 1018.05 1017.59 1017.11 1016.61 1016.05 1015.49 1014.94 1014.31 1013.61 1012.93 1012.65 1012.29 1011.89 1011.35 1011.45 1011.67 1011.66 1011.48 1010.34 1009.04 1007.93 1007.26 1007.02 1006.42 1005.90 1004.90 1004.51 1004.53 1004.47 1003.74 1004.11 1004.37 1004.43 1005.45 1005.18 1003.81 1002.94 1002.88 1003.61 1004.09 1005.05 1006.85 1008.37 1009.78 1010.13
1019.05 1018.59 1018.10 1017.61 1017.08 1016.57 1016.02 1015.46 1014.90 1014.27 1013.38 1012.48 1012.53 1012.29 1011.94 1011.60 1011.74 1011.70 1012.24 1011.56 1010.04 1008.58 1007.96 1007.48 1007.14 1006.86 1006.35 1005.69 1004.85 1004.47 1004.02 1003.31 1002.98 1003.76 1004.39 1005.26 1005.73 1004.84 1003.94 1003.44 1003.63 1004.55 1005.23 1006.73 1008.04 1008.74 1009.26
1018.92 1018.47 1018.03 1017.55 1017.09 1016.55 1016.00 1015.51 1015.01 1014.42 1013.41 1012.59 1012.76 1012.68 1012.15 1012.16 1012.16 1012.72 1012.18 1011.00 1009.65 1008.23 1007.59 1007.37 1007.02 1006.68 1006.15 1005.61 1004.92 1004.21 1003.42 1002.26 1001.58 1002.61 1004.32 1004.68 1005.33 1005.75 1004.81 1003.52 1003.38 1003.68 1004.46 1005.70 1007.45 1008.78 1008.99
1018.92 1018.45 1017.99 1017.56 1017.07 1016.55 1016.03 1015.56 1015.14 1014.74 1014.42 1014.26 1013.60 1013.16 1012.29 1012.20 1012.53 1012.64 1011.64 1010.61 1009.49 1008.24 1007.31 1006.97 1006.49 1005.89 1005.64 1005.52 1005.19 1003.71 1002.66 1001.18 1001.71 1002.10 1002.99 1004.04 1005.32 1005.77 1004.98 1004.24 1003.88 1003.70 1004.21 1005.01 1005.95 1006.99 1007.98
1018.94 1018.46 1017.96 1017.48 1017.03 1016.61 1016.16 1015.70 1015.24 1014.80 1014.34 1014.41 1014.04 1013.60 1013.01 1012.67 1012.64 1012.29 1011.68 1010.51 1009.32 1007.82 1007.17 1006.46 1005.94 1005.50 1005.49 1005.26 1004.47 1003.73 1002.74 1001.53 1001.27 1001.47 1001.69 1002.71 1004.52 1004.98 1004.78 1004.09 1003.30 1003.38 1003.77 1004.40 1005.08 1006.56 1006.79
1018.95 1018.50 1018.02 1017.54 1017.12 1016.69 1016.20 1015.75 1015.27 1014.85 1014.36 1014.47 1014.07 1013.83 1013.31 1013.02 1012.61 1012.13 1011.48 1010.56 1009.42 1008.29 1006.95 1006.18 1005.73 1005.38 1005.21 1005.14 1004.21 1003.68 1002.84 1002.13 1001.44 1001.41 1002.16 1002.25 1004.18 1004.52 1004.00 1003.50 1003.14 1002.83 1002.94 1003.60 1004.37 1004.54 1005.14
1018.90 1018.44 1017.99 1017.57 1017.17 1016.75 1016.31 1015.87 1015.39 1014.91 1014.48 1014.58 1014.44 1014.20 1013.54 1013.01 1012.36 1011.88 1011.33 1010.36 1009.32 1008.22 1007.44 1006.32 1005.70 1005.04 1004.92 1004.91 1003.43 1003.17 1003.09 1002.87 1002.97 1002.54 1002.81 1002.89 1003.78 1004.25 1004.27 1003.62 1003.12 1002.77 1002.57 1002.90 1003.37 1003.67 1003.94
1018.93 1018.48 1018.05 1017.61 1017.20 1016.81 1016.40 1015.98 1015.51 1015.03 1014.56 1014.84 1014.73 1014.23 1013.92 1013.12 1012.54 1011.99 1010.93 1009.72 1008.86 1008.28 1006.88 1006.19 1005.69 1005.40 1004.45 1003.85 1003.45 1002.56 1003.03 1003.13 1003.63 1003.60 1003.80 1003.98 1004.07 1004.89 1004.79 1003.86 1003.52 1003.36 1002.43 1002.37 1002.69 1002.96 1003.15
1018.96 1018.49 1018.02 1017.57 1017.16 1016.78 1016.43 1016.06 1015.68 1015.43 1015.29 1015.51 1015.52 1015.27 1014.63 1013.83 1012.80 1011.54 1010.35 1009.68 1008.90 1008.19 1007.58 1005.98 1005.76 1005.52 1004.18 1003.45 1003.08 1002.49 1002.67 1003.25 1003.72 1003.70 1003.82 1004.31 1004.51 1004.82 1005.27 1004.62 1004.30 1002.64 1002.15 1002.14 1002.58 1002.99 1003.16
1018.85 1018.44 1017.97 1017.49 1017.04 1016.64 1016.31 1016.01 1015.75 1015.55 1015.46 1015.39 1015.46 1015.61 1015.12 1014.27 1012.79 1011.36 1010.37 1009.65 1008.67 1007.71 1007.14 1006.13 1005.08 1004.57 1004.29 1004.09 1004.11 1004.09 1004.43 1004.39 1003.55 1003.56 1003.99 1004.11 1004.64 1005.39 1005.43 1005.17 1004.35 1003.14 1002.59 1002.71 1002.93 1003.24 1003.22
1018.78 1018.35 1017.95 1017.49 1016.97 1016.53 1016.13 1015.83 1015.61 1015.44 1015.33 1015.28 1015.30 1015.48 1015.33 1014.75 1012.46 1010.98 1010.30 1009.47 1009.03 1008.13 1007.09 1005.77 1004.56 1004.48 1004.63 1004.68 1004.66 1004.96 1005.24 1004.78 1004.09 1003.59 1003.74 1004.14 1004.15 1005.00 1005.40 1005.18 1004.49 1003.13 1002.96 1003.14 1003.41 1003.57 1003.28
1018.71 1018.24 1017.80 1017.37 1016.92 1016.46 1016.02 1015.66 1015.41 1015.23 1015.14 1015.15 1015.21 1015.40 1015.35 1014.79 1011.84 1011.14 1010.39 1009.30 1008.66 1008.26 1007.91 1006.84 1005.96 1005.26 1004.85 1005.34 1005.62 1005.66 1005.68 1004.83 1004.60 1004.42 1004.61 1005.02 1005.33 1005.87 1005.57 1005.04 1004.14 1003.20 1003.08 1003.41 1004.10 1004.30 1003.82
1018.59 1018.10 1017.63 1017.20 1016.78 1016.32 1015.92 1015.58 1015.29 1015.07 1014.95 1014.93 1015.05 1015.04 1015.25 1014.61 1012.10 1010.43 1009.58 1009.00 1008.64 1008.40 1008.23 1007.19 1006.67 1006.30 1005.88 1005.96 1006.17 1006.16 1006.22 1005.07 1004.70 1004.82 1005.19 1005.25 1005.87 1006.38 1005.87 1005.05 1004.35 1003.43 1003.75 1003.76 1003.61 1003.75 1003.86
1018.32 1017.80 1017.33 1016.93 1016.53 1016.09 1015.65 1015.34 1015.10 1014.90 1014.77 1014.66 1015.01 1014.82 1014.87 1014.99 1011.74 1010.00 1008.74 1007.82 1007.54 1007.11 1007.59 1007.38 1007.17 1006.62 1005.91 1006.16 1006.40 1006.20 1006.05 1005.88 1005.36 1005.44 1005.14 1005.50 1004.45 1005.13 1005.14 1004.42 1003.77 1003.83 1003.86 1003.69 1003.77 1003.76 1003.73
Thickness
5682 5685 5689 5692 5695 5699 5703 5706 5711 5714 5718 5721 5725 5729 5733 5737 5741 5746 5752 5757 5762 5768 5774 5779 5784 5789 5795 5793 5805 5840 5843 5846 5846 5842 5835 5832 5827 5819 5811 5818 5823 5813 5822 5829 5841 5840 5838
5677 5679 5683 5687 5691 5695 5699 5703 5708 5712 5715 5718 5722 5725 5729 5733 5737 5742 5747 5753 5759 5764 5770 5777 5782 5785 5789 5782 5838 5839 5837 5838 5837 5835 5832 5831 5827 5828 5818 5815 5815 5832 5832 5831 5837 5833 5838
5672 5675 5678 5682 5686 5691 5696 5701 5705 5709 5713 5716 5719 5722 5726 5729 5734 5738 5743 5748 5754 5761 5767 5772 5777 5781 5784 5800 5838 5837 5838 5833 5835 5833 5825 5833 5836 5826 5824 5815 5832 5832 5817 5826 5826 5829 5826
5667 5670 5673 5677 5682 5686 5691 5696 5700 5705 5709 5712 5715 5720 5723 5727 5731 5737 5742 5749 5755 5761 5766 5769 5773 5778 5783 5828 5834 5832 5834 5831 5832 5833 5831 5836 5838 5827 5820 5829 5823 5811 5810 5791 5818 5826 5826
5662 5665 5668 5672 5677 5681 5686 5691 5696 5700 5704 5708 5712 5716 5720 5724 5729 5734 5741 5748 5756 5760 5764 5766 5769 5775 5781 5826 5819 5834 5835 5825 5828 5830 5832 5836 5830 5813 5816 5798 5783 5787 5776 5787 5798 5822 5816
5658 5660 5663 5667 5672 5676 5681 5686 5691 5695 5698 5702 5706 5710 5715 5722 5727 5732 5740 5750 5755 5757 5758 5760 5765 5764 5795 5801 5820 5830 5833 5832 5822 5821 5816 5815 5798 5788 5783 5776 5752 5769 5774 5785 5784 5811 5809
5653 5655 5659 5662 5666 5671 5676 5681 5686 5690 5693 5697 5701 5705 5711 5717 5723 5729 5738 5744 5748 5749 5752 5758 5765 5768 5786 5802 5820 5819 5827 5821 5819 5805 5785 5797 5780 5769 5785 5789 5789 5790 5784 5782 5802 5816 5808
5648 5650 5654 5659 5662 5666 5671 5676 5680 5685 5689 5693 5697 5703 5709 5713 5719 5726 5730 5738 5736 5734 5734 5762 5765 5768 5781 5791 5784 5806 5821 5804 5799 5778 5787 5781 5769 5790 5793 5793 5793 5789 5785 5783 5805 5822 5813
5643 5646 5650 5654 5659 5663 5667 5672 5676 5680 5684 5688 5693 5699 5705 5711 5717 5720 5719 5731 5732 5733 5727 5754 5764 5766 5774 5783 5779 5790 5807 5800 5789 5776 5775 5763 5784 5793 5792 5790 5787 5785 5783 5786 5787 5805 5813
5639 5642 5646 5650 5654 5659 5663 5668 5672 5676 5680 5684 5689 5694 5699 5706 5711 5707 5719 5728 5729 5729 5712 5741 5757 5771 5775 5778 5777 5802 5808 5800 5786 5774 5771 5775 5791 5792 5788 5786 5786 5770 5798 5798 5793 5786 5765
5635 5639 5642 5647 5651 5655 5660 5663 5667 5672 5676 5680 5685 5689 5692 5695 5697 5701 5721 5723 5728 5727 5691 5755 5760 5785 5775 5767 5784 5787 5805 5796 5775 5777 5775 5774 5780 5781 5779 5788 5795 5784 5807 5799 5794 5780 5778
5633 5636 5640 5644 5648 5652 5656 5661 5665 5669 5674 5678 5682 5685 5688 5690 5692 5708 5714 5717 5721 5698 5690 5736 5759 5754 5754 5763 5772 5780 5783 5796 5790 5776 5777 5777 5794 5790 5794 5799 5799 5803 5792 5779 5769 5759 5743
5631 5634 5638 5641 5645 5648 5653 5658 5662 5667 5672 5678 5683 5685 5685 5687 5697 5705 5707 5713 5684 5677 5725 5727 5734 5746 5742 5743 5756 5765 5759 5758 5751 5739 5747 5770 5777 5796 5804 5786 5794 5786 5763 5729 5735 5729 5732
5630 5633 5635 5639 5642 5646 5650 5656 5660 5666 5671 5677 5683 5687 5689 5691 5695 5696 5700 5693 5675 5698 5701 5722 5731 5730 5725 5738 5743 5750 5744 5735 5753 5749 5726 5734 5736 5780 5801 5790 5781 5776 5763 5727 5724 5719 5737
5627 5630 5633 5636 5640 5643 5648 5653 5658 5663 5669 5676 5683 5684 5684 5692 5690 5688 5692 5662 5671 5685 5707 5704 5714 5709 5716 5735 5737 5740 5733 5729 5744 5751 5739 5727 5743 5788 5797 5802 5797 5772 5757 5778 5732 5725 5727
5625 5627 5630 5634 5637 5641 5646 5650 5655 5661 5667 5673 5676 5681 5687 5687 5687 5686 5674 5661 5674 5688 5700 5700 5692 5702 5697 5713 5725 5721 5719 5747 5750 5756 5766 5753 5743 5780 5797 5802 5797 5788 5791 5756 5738 5726 5729
5622 5625 5628 5632 5636 5640 5644 5648 5653 5658 5665 5673 5674 5682 5680 5680 5679 5677 5657 5656 5674 5690 5697 5693 5692 5694 5698 5705 5718 5712 5726 5748 5760 5753 5758 5747 5742 5755 5778 5776 5770 5771 5765 5755 5750 5738 5726
5622 5625 5628 5631 5634 5638 5642 5645 5649 5653 5661 5667 5666 5670 5672 5670 5664 5644 5653 5663 5680 5688 5698 5695 5697 5696 5702 5709 5711 5713 5724 5751 5771 5760 5743 5753 5735 5727 5747 5782 5790 5788 5776 5764 5739 5744 5729
5622 5624 5627 5630 5633 5636 5639 5642 5645 5647 5649 5650 5658 5659 5665 5665 5649 5645 5656 5666 5675 5681 5688 5692 5694 5702 5710 5708 5705 5722 5733 5765 5760 5759 5747 5748 5723 5713 5732 5758 5771 5774 5773 5768 5756 5747 5730
5622 5625 5628 5630 5633 5635 5637 5639 5642 5644 5647 5646 5652 5654 5654 5653 5646 5652 5654 5659 5664 5686 5685 5697 5698 5707 5705 5702 5713 5720 5733 5757 5767 5768 5772 5764 5721 5732 5723 5747 5771 5774 5775 5769 5767 5740 5736
5623 5625 5628 5630 5632 5634 5636 5638 5640 5642 5645 5643 5649 5651 5649 5645 5646 5648 5654 5654 5657 5663 5685 5694 5694 5701 5707 5698 5711 5720 5728 5741 5759 5766 5758 5761 5736 5735 5752 5763 5772 5784 5784 5767 5767 5768 5762
5624 5627 5629 5631 5632 5634 5635 5636 5638 5640 5642 5642 5648 5646 5643 5644 5646 5648 5643 5649 5655 5665 5671 5681 5687 5702 5705 5695 5722 5721 5727 5732 5734 5749 5751 5746 5739 5738 5747 5756 5766 5772 5781 5775 5778 5772 5774
5625 5627 5629 5630 5631 5632 5634 5635 5636 5638 5641 5634 5634 5638 5641 5643 5644 5643 5645 5653 5660 5665 5678 5685 5691 5690 5700 5713 5723 5737 5734 5729 5729 5738 5733 5735 5729 5724 5729 5750 5752 5741 5768 5775 5780 5784 5787
5625 5627 5629 5629 5630 5631 5631 5632 5633 5633 5633 5630 5625 5626 5635 5637 5638 5644 5657 5656 5657 5662 5664 5685 5688 5686 5712 5726 5729 5737 5731 5725 5724 5733 5733 5725 5727 5724 5717 5736 5715 5756 5777 5780 5776 5779 5782
5625 5626 5627 5628 5629 5629 5629 5630 5630 5630 5629 5628 5626 5623 5628 5631 5637 5645 5649 5651 5659 5665 5667 5678 5693 5704 5709 5711 5702 5697 5694 5705 5729 5735 5736 5732 5725 5712 5710 5707 5733 5757 5770 5770 5770 5770 5780
5623 5624 5625 5626 5626 5627 5628 5628 5628 5628 5627 5626 5625 5622 5620 5626 5638 5651 5649 5653 5648 5655 5665 5682 5701 5703 5704 5695 5696 5686 5678 5696 5705 5726 5734 5731 5730 5727 5707 5718 5709 5743 5765 5769 5769 5745 5780
5621 5622 5623 5623 5624 5625 5626 5627 5627 5627 5626 5624 5623 5620 5618 5622 5642 5645 5641 5648 5657 5655 5652 5663 5678 5684 5696 5681 5681 5677 5680 5702 5698 5708 5715 5709 5712 5708 5707 5710 5724 5752 5763 5762 5737 5745 5769
5617 5618 5620 5621 5622 5623 5624 5624 5625 5624 5624 5623 5620 5619 5616 5617 5634 5651 5655 5652 5652 5651 5648 5661 5666 5672 5677 5677 5675 5674 5679 5700 5700 5705 5701 5709 5703 5698 5697 5704 5719 5753 5751 5746 5754 5762 5766
5615 5617 5618 5619 5620 5621 5622 5622 5622 5622 5621 5621 5617 5616 5614 5611 5638 5651 5659 5664 5664 5665 5654 5654 5659 5666 5674 5671 5672 5674 5680 5680 5691 5690 5707 5701 5719 5708 5715 5717 5738 5743 5746 5753 5754 5757 5762